﻿測定場所 (Monitoring sites),日付 (Measurement date),時間 (Measurement time),線量率 最大値 (max) μGy/h,線量率 最小値 (min) μGy/h,線量率 平均値 (average) μGy/h,
江東 (Koto),2014-07-27,23:01～24:00,0.0404,0.0362,0.0384,
江東 (Koto),2014-07-27,22:01～23:00,0.0405,0.0361,0.0381,
江東 (Koto),2014-07-27,21:01～22:00,0.0412,0.0353,0.0384,
江東 (Koto),2014-07-27,20:01～21:00,0.0415,0.0359,0.0384,
江東 (Koto),2014-07-27,19:01～20:00,0.0423,0.0366,0.0386,
江東 (Koto),2014-07-27,18:01～19:00,0.0420,0.0360,0.0388,
江東 (Koto),2014-07-27,17:01～18:00,0.0427,0.0371,0.0394,
江東 (Koto),2014-07-27,16:01～17:00,0.0449,0.0375,0.0415,
江東 (Koto),2014-07-27,15:01～16:00,0.0455,0.0366,0.0410,
江東 (Koto),2014-07-27,14:01～15:00,0.0404,0.0367,0.0386,
江東 (Koto),2014-07-27,13:01～14:00,0.0413,0.0359,0.0387,
江東 (Koto),2014-07-27,12:01～13:00,0.0408,0.0343,0.0386,
江東 (Koto),2014-07-27,11:01～12:00,0.0415,0.0365,0.0386,
江東 (Koto),2014-07-27,10:01～11:00,0.0408,0.0369,0.0387,
江東 (Koto),2014-07-27,09:01～10:00,0.0412,0.0367,0.0385,
江東 (Koto),2014-07-27,08:01～09:00,0.0409,0.0355,0.0385,
江東 (Koto),2014-07-27,07:01～08:00,0.0408,0.0363,0.0385,
江東 (Koto),2014-07-27,06:01～07:00,0.0411,0.0353,0.0384,
江東 (Koto),2014-07-27,05:01～06:00,0.0410,0.0363,0.0385,
江東 (Koto),2014-07-27,04:01～05:00,0.0418,0.0363,0.0386,
江東 (Koto),2014-07-27,03:01～04:00,0.0406,0.0367,0.0385,
江東 (Koto),2014-07-27,02:01～03:00,0.0405,0.0358,0.0383,
江東 (Koto),2014-07-27,01:01～02:00,0.0411,0.0362,0.0384,
江東 (Koto),2014-07-27,00:01～01:00,0.0404,0.0360,0.0386,
江東 (Koto),2014-07-26,23:01～24:00,0.0403,0.0363,0.0385,
江東 (Koto),2014-07-26,22:01～23:00,0.0406,0.0364,0.0385,
江東 (Koto),2014-07-26,21:01～22:00,0.0412,0.0361,0.0385,
江東 (Koto),2014-07-26,20:01～21:00,0.0413,0.0358,0.0383,
江東 (Koto),2014-07-26,19:01～20:00,0.0411,0.0368,0.0385,
江東 (Koto),2014-07-26,18:01～19:00,0.0404,0.0363,0.0384,
江東 (Koto),2014-07-26,17:01～18:00,0.0409,0.0360,0.0384,
江東 (Koto),2014-07-26,16:01～17:00,0.0402,0.0359,0.0382,
江東 (Koto),2014-07-26,15:01～16:00,0.0409,0.0364,0.0386,
江東 (Koto),2014-07-26,14:01～15:00,0.0405,0.0360,0.0386,
江東 (Koto),2014-07-26,13:01～14:00,0.0423,0.0364,0.0383,
江東 (Koto),2014-07-26,12:01～13:00,0.0416,0.0359,0.0384,
江東 (Koto),2014-07-26,11:01～12:00,0.0416,0.0358,0.0385,
江東 (Koto),2014-07-26,10:01～11:00,0.0413,0.0365,0.0385,
江東 (Koto),2014-07-26,09:01～10:00,0.0414,0.0359,0.0386,
江東 (Koto),2014-07-26,08:01～09:00,0.0413,0.0368,0.0388,
江東 (Koto),2014-07-26,07:01～08:00,0.0408,0.0356,0.0384,
江東 (Koto),2014-07-26,06:01～07:00,0.0406,0.0363,0.0383,
江東 (Koto),2014-07-26,05:01～06:00,0.0406,0.0362,0.0383,
江東 (Koto),2014-07-26,04:01～05:00,0.0401,0.0364,0.0381,
江東 (Koto),2014-07-26,03:01～04:00,0.0407,0.0362,0.0382,
江東 (Koto),2014-07-26,02:01～03:00,0.0406,0.0355,0.0382,
江東 (Koto),2014-07-26,01:01～02:00,0.0406,0.0359,0.0386,
江東 (Koto),2014-07-26,00:01～01:00,0.0411,0.0357,0.0384,
江東 (Koto),2014-07-25,23:01～24:00,0.0411,0.0359,0.0385,
江東 (Koto),2014-07-25,22:01～23:00,0.0406,0.0367,0.0384,
江東 (Koto),2014-07-25,21:01～22:00,0.0409,0.0360,0.0383,
江東 (Koto),2014-07-25,20:01～21:00,0.0406,0.0364,0.0385,
江東 (Koto),2014-07-25,19:01～20:00,0.0407,0.0359,0.0385,
江東 (Koto),2014-07-25,18:01～19:00,0.0411,0.0356,0.0382,
江東 (Koto),2014-07-25,17:01～18:00,0.0408,0.0357,0.0385,
江東 (Koto),2014-07-25,16:01～17:00,0.0406,0.0366,0.0388,
江東 (Koto),2014-07-25,15:01～16:00,0.0407,0.0364,0.0387,
江東 (Koto),2014-07-25,14:01～15:00,0.0410,0.0360,0.0385,
江東 (Koto),2014-07-25,13:01～14:00,0.0406,0.0359,0.0383,
江東 (Koto),2014-07-25,12:01～13:00,0.0408,0.0361,0.0383,
江東 (Koto),2014-07-25,11:01～12:00,0.0404,0.0362,0.0381,
江東 (Koto),2014-07-25,10:01～11:00,0.0413,0.0353,0.0384,
江東 (Koto),2014-07-25,09:01～10:00,0.0433,0.0360,0.0384,
江東 (Koto),2014-07-25,08:01～09:00,0.0409,0.0363,0.0385,
江東 (Koto),2014-07-25,07:01～08:00,0.0406,0.0369,0.0385,
江東 (Koto),2014-07-25,06:01～07:00,0.0405,0.0362,0.0383,
江東 (Koto),2014-07-25,05:01～06:00,0.0398,0.0361,0.0380,
江東 (Koto),2014-07-25,04:01～05:00,0.0411,0.0365,0.0385,
江東 (Koto),2014-07-25,03:01～04:00,0.0409,0.0368,0.0384,
江東 (Koto),2014-07-25,02:01～03:00,0.0404,0.0356,0.0383,
江東 (Koto),2014-07-25,01:01～02:00,0.0401,0.0363,0.0382,
江東 (Koto),2014-07-25,00:01～01:00,0.0410,0.0361,0.0384,
江東 (Koto),2014-07-24,23:01～24:00,0.0409,0.0366,0.0387,
江東 (Koto),2014-07-24,22:01～23:00,0.0434,0.0377,0.0403,
江東 (Koto),2014-07-24,21:01～22:00,0.0506,0.0412,0.0453,
江東 (Koto),2014-07-24,20:01～21:00,0.0530,0.0462,0.0499,
江東 (Koto),2014-07-24,19:01～20:00,0.0511,0.0363,0.0423,
江東 (Koto),2014-07-24,18:01～19:00,0.0412,0.0376,0.0390,
江東 (Koto),2014-07-24,17:01～18:00,0.0418,0.0371,0.0390,
江東 (Koto),2014-07-24,16:01～17:00,0.0410,0.0365,0.0387,
江東 (Koto),2014-07-24,15:01～16:00,0.0404,0.0368,0.0387,
江東 (Koto),2014-07-24,14:01～15:00,0.0418,0.0365,0.0387,
江東 (Koto),2014-07-24,13:01～14:00,0.0429,0.0361,0.0389,
江東 (Koto),2014-07-24,12:01～13:00,0.0413,0.0362,0.0387,
江東 (Koto),2014-07-24,11:01～12:00,0.0413,0.0357,0.0387,
江東 (Koto),2014-07-24,10:01～11:00,0.0408,0.0359,0.0388,
江東 (Koto),2014-07-24,09:01～10:00,0.0405,0.0358,0.0386,
江東 (Koto),2014-07-24,08:01～09:00,0.0414,0.0361,0.0385,
江東 (Koto),2014-07-24,07:01～08:00,0.0405,0.0360,0.0384,
江東 (Koto),2014-07-24,06:01～07:00,0.0408,0.0359,0.0385,
江東 (Koto),2014-07-24,05:01～06:00,0.0412,0.0358,0.0383,
江東 (Koto),2014-07-24,04:01～05:00,0.0409,0.0361,0.0383,
江東 (Koto),2014-07-24,03:01～04:00,0.0407,0.0364,0.0384,
江東 (Koto),2014-07-24,02:01～03:00,0.0406,0.0364,0.0387,
江東 (Koto),2014-07-24,01:01～02:00,0.0414,0.0357,0.0382,
江東 (Koto),2014-07-24,00:01～01:00,0.0420,0.0369,0.0386,
江東 (Koto),2014-07-23,23:01～24:00,0.0415,0.0365,0.0385,
江東 (Koto),2014-07-23,22:01～23:00,0.0409,0.0370,0.0387,
江東 (Koto),2014-07-23,21:01～22:00,0.0411,0.0366,0.0385,
江東 (Koto),2014-07-23,20:01～21:00,0.0400,0.0366,0.0383,
江東 (Koto),2014-07-23,19:01～20:00,0.0415,0.0362,0.0386,
江東 (Koto),2014-07-23,18:01～19:00,0.0415,0.0368,0.0387,
江東 (Koto),2014-07-23,17:01～18:00,0.0415,0.0366,0.0387,
江東 (Koto),2014-07-23,16:01～17:00,0.0408,0.0358,0.0386,
江東 (Koto),2014-07-23,15:01～16:00,0.0412,0.0368,0.0389,
江東 (Koto),2014-07-23,14:01～15:00,0.0418,0.0368,0.0386,
江東 (Koto),2014-07-23,13:01～14:00,0.0410,0.0359,0.0389,
江東 (Koto),2014-07-23,12:01～13:00,0.0409,0.0362,0.0384,
江東 (Koto),2014-07-23,11:01～12:00,0.0403,0.0356,0.0383,
江東 (Koto),2014-07-23,10:01～11:00,0.0400,0.0357,0.0386,
江東 (Koto),2014-07-23,09:01～10:00,0.0411,0.0365,0.0384,
江東 (Koto),2014-07-23,08:01～09:00,0.0420,0.0365,0.0387,
江東 (Koto),2014-07-23,07:01～08:00,0.0410,0.0363,0.0386,
江東 (Koto),2014-07-23,06:01～07:00,0.0419,0.0367,0.0387,
江東 (Koto),2014-07-23,05:01～06:00,0.0418,0.0363,0.0387,
江東 (Koto),2014-07-23,04:01～05:00,0.0406,0.0361,0.0385,
江東 (Koto),2014-07-23,03:01～04:00,0.0428,0.0366,0.0387,
江東 (Koto),2014-07-23,02:01～03:00,0.0410,0.0359,0.0387,
江東 (Koto),2014-07-23,01:01～02:00,0.0406,0.0361,0.0385,
江東 (Koto),2014-07-23,00:01～01:00,0.0402,0.0355,0.0383,
江東 (Koto),2014-07-22,23:01～24:00,0.0406,0.0362,0.0382,
江東 (Koto),2014-07-22,22:01～23:00,0.0403,0.0350,0.0382,
江東 (Koto),2014-07-22,21:01～22:00,0.0406,0.0362,0.0383,
江東 (Koto),2014-07-22,20:01～21:00,0.0405,0.0355,0.0383,
江東 (Koto),2014-07-22,19:01～20:00,0.0403,0.0361,0.0381,
江東 (Koto),2014-07-22,18:01～19:00,0.0411,0.0364,0.0385,
江東 (Koto),2014-07-22,17:01～18:00,0.0401,0.0361,0.0381,
江東 (Koto),2014-07-22,16:01～17:00,0.0403,0.0359,0.0380,
江東 (Koto),2014-07-22,15:01～16:00,0.0408,0.0345,0.0383,
江東 (Koto),2014-07-22,14:01～15:00,0.0413,0.0355,0.0382,
江東 (Koto),2014-07-22,13:01～14:00,0.0409,0.0366,0.0383,
江東 (Koto),2014-07-22,12:01～13:00,0.0406,0.0362,0.0382,
江東 (Koto),2014-07-22,11:01～12:00,0.0410,0.0352,0.0380,
江東 (Koto),2014-07-22,10:01～11:00,0.0405,0.0364,0.0383,
江東 (Koto),2014-07-22,09:01～10:00,0.0407,0.0360,0.0381,
江東 (Koto),2014-07-22,08:01～09:00,0.0406,0.0355,0.0384,
江東 (Koto),2014-07-22,07:01～08:00,0.0403,0.0356,0.0381,
江東 (Koto),2014-07-22,06:01～07:00,0.0409,0.0361,0.0382,
江東 (Koto),2014-07-22,05:01～06:00,0.0414,0.0362,0.0384,
江東 (Koto),2014-07-22,04:01～05:00,0.0417,0.0366,0.0384,
江東 (Koto),2014-07-22,03:01～04:00,0.0401,0.0359,0.0379,
江東 (Koto),2014-07-22,02:01～03:00,0.0411,0.0362,0.0380,
江東 (Koto),2014-07-22,01:01～02:00,0.0402,0.0348,0.0378,
江東 (Koto),2014-07-22,00:01～01:00,0.0413,0.0360,0.0384,
江東 (Koto),2014-07-21,23:01～24:00,0.0404,0.0364,0.0381,
江東 (Koto),2014-07-21,22:01～23:00,0.0402,0.0362,0.0380,
江東 (Koto),2014-07-21,21:01～22:00,0.0401,0.0353,0.0381,
江東 (Koto),2014-07-21,20:01～21:00,0.0400,0.0356,0.0380,
江東 (Koto),2014-07-21,19:01～20:00,0.0406,0.0357,0.0381,
江東 (Koto),2014-07-21,18:01～19:00,0.0405,0.0365,0.0381,
江東 (Koto),2014-07-21,17:01～18:00,0.0417,0.0356,0.0381,
江東 (Koto),2014-07-21,16:01～17:00,0.0404,0.0355,0.0379,
江東 (Koto),2014-07-21,15:01～16:00,0.0404,0.0364,0.0383,
江東 (Koto),2014-07-21,14:01～15:00,0.0399,0.0360,0.0379,
江東 (Koto),2014-07-21,13:01～14:00,0.0403,0.0359,0.0381,
江東 (Koto),2014-07-21,12:01～13:00,0.0417,0.0356,0.0378,
江東 (Koto),2014-07-21,11:01～12:00,0.0418,0.0354,0.0381,
江東 (Koto),2014-07-21,10:01～11:00,0.0403,0.0361,0.0382,
江東 (Koto),2014-07-21,09:01～10:00,0.0405,0.0366,0.0383,
江東 (Koto),2014-07-21,08:01～09:00,0.0400,0.0369,0.0381,
江東 (Koto),2014-07-21,07:01～08:00,0.0405,0.0358,0.0381,
江東 (Koto),2014-07-21,06:01～07:00,0.0406,0.0356,0.0381,
江東 (Koto),2014-07-21,05:01～06:00,0.0400,0.0362,0.0383,
江東 (Koto),2014-07-21,04:01～05:00,0.0408,0.0361,0.0382,
江東 (Koto),2014-07-21,03:01～04:00,0.0417,0.0364,0.0383,
江東 (Koto),2014-07-21,02:01～03:00,0.0400,0.0359,0.0381,
江東 (Koto),2014-07-21,01:01～02:00,0.0400,0.0364,0.0380,
江東 (Koto),2014-07-21,00:01～01:00,0.0419,0.0352,0.0382,
